Location: Dannhausen
(51.8650°N, 10.1026°E)
Time: 13:44:43
(UTC+00:00)

STARLINK-1200 - Visible Passes

Search period start: 06 August 2020 00:00
Search period end: 16 August 2020 00:00
Orbit: 548 x 551 km, 53.0° (Epoch: 06 August)

Date Brightness Start Highest point End Pass type
(mag) Time Alt. Az. Time Alt. Az. Time Alt. Az.
06 Aug 5.1 01:15:30 10° W 01:17:18 22° W 01:17:18 22° W visible
06 Aug 3.6 20:11:03 10° WSW 20:15:09 64° SSE 20:19:16 10° ENE visible
06 Aug 3.7 21:50:37 10° W 21:54:46 75° N 21:58:55 10° E visible
06 Aug 3.4 23:30:18 10° WNW 23:34:27 80° SSW 23:34:37 78° SSE visible
07 Aug 6.0 01:10:08 10° W 01:10:11 10° W 01:10:11 10° W visible
07 Aug 3.5 20:05:33 10° WSW 20:09:41 74° SSE 20:13:50 10° ENE visible
07 Aug 3.7 21:45:12 10° W 21:49:21 74° N 21:52:43 15° E visible
07 Aug 3.8 23:24:52 10° WNW 23:28:19 57° W 23:28:19 57° W visible
08 Aug 3.6 20:00:07 10° WSW 20:04:16 84° SSE 20:08:26 10° ENE visible
08 Aug 3.7 21:39:49 10° W 21:43:59 76° N 21:46:44 20° E visible
08 Aug 4.4 23:19:29 10° WNW 23:22:20 40° W 23:22:20 40° W visible
09 Aug 3.6 19:54:45 10° WSW 19:58:55 88° NNW 20:03:04 10° ENE visible
09 Aug 3.7 21:34:29 10° W 21:38:39 78° N 21:40:56 26° E visible
09 Aug 4.8 23:14:09 10° WNW 23:16:34 31° W 23:16:34 31° W visible
10 Aug 3.7 19:49:27 10° W 19:53:37 82° N 19:57:46 10° ENE visible
10 Aug 3.6 21:29:11 10° WNW 21:33:21 83° N 21:35:16 31° E visible
10 Aug 5.2 23:08:52 10° WNW 23:10:53 25° W 23:10:53 25° W visible
11 Aug 3.8 19:44:12 10° W 19:48:21 78° N 19:52:30 10° E visible
11 Aug 3.5 21:23:55 10° WNW 21:28:05 90° NE 21:29:42 37° ESE visible
11 Aug 5.4 23:03:40 10° W 23:05:20 21° W 23:05:20 21° W visible
12 Aug 3.8 19:38:59 10° W 19:43:09 75° N 19:47:18 10° E visible
12 Aug 3.5 21:18:42 10° WNW 21:22:52 82° SSW 21:24:13 41° ESE visible
12 Aug 5.7 22:58:32 10° W 22:59:51 17° W 22:59:51 17° W visible
13 Aug 3.8 19:33:49 10° W 19:37:58 74° N 19:42:08 10° E visible
13 Aug 3.5 21:13:31 10° WNW 21:17:39 72° SSW 21:18:49 45° SE visible
13 Aug 5.9 22:53:31 10° W 22:54:27 15° W 22:54:27 15° W visible
14 Aug 3.8 19:28:42 10° W 19:32:52 75° N 19:37:01 10° E visible
14 Aug 3.7 21:08:22 10° WNW 21:12:28 62° SSW 21:13:29 45° SSE visible
14 Aug 6.1 22:48:37 10° W 22:49:08 12° W 22:49:08 12° W visible
15 Aug 3.7 19:23:37 10° W 19:27:46 78° N 19:31:56 10° E visible
15 Aug 3.9 21:03:17 10° WNW 21:07:19 52° SSW 21:08:14 42° SSE visible
